Location: Unspecified
(49.9820°N, 20.4363°E)
Time: 03:51:24
(UTC+02:00)

Vanguard 3 - Pass Details

Date: 19 May 2026
Orbit: 507 x 3204 km, 33.3° (Epoch: 6 June)

Event Time Altitude Azimuth Distance (km) Brightness Sun altitude
Rises 13:19:19 0° 230° (SW) 6,222 12.1 58.6°
Reaches altitude 10° 13:23:26 10° 223° (SW) 5,499 12.0 58.3°
Maximum altitude 13:39:08 41° 162° (SSE) 4,100 11.8 57.2°
Drops below altitude 10° 13:55:48 10° 102° (ESE) 5,836 11.5 55.8°
Sets 14:00:18 0° 95° (E) 6,625 11.6 55.4°
